DW1011 Weather Reports


time (UTC)temp
C
wind
direction
speed
KPH
gust
KPH
rain 1hr
cm
rain 24hr
cm
rain mn
cm
humidity
%
barometer
mb
20260504210059 12 0 0.0 0.0 0.05 0.05 0.05 57 1011.6
20260504204606 13 0 0.0 27.4 0.03 0.56 0.03 53 1011.6
20260504203052 15 0 22.5 45.1 0.00 0.53 0.00 40 1011.2
20260504201548 19 12 9.7 22.5 0.00 0.53 0.00 25 1009.8
20260504200057 20 14 3.2 24.1 0.00 0.53 0.00 25 1009.6
20260504194552 20 360 4.8 35.4 0.00 1.30 0.00 26 1009.5
20260504193051 20 0 0.0 0.0 0.00 1.30 0.00 26 1009.5
20260504191555 21 0 0.0 0.0 0.00 1.30 0.00 23 1009.6
20260504190054 20 360 25.7 35.4 0.00 1.30 0.00 25 1009.8
20260504184558 21 360 17.7 27.4 0.00 1.42 0.00 24 1009.9
20260504183059 20 360 19.3 29.0 0.00 1.42 0.00 25 1010.1
20260504181556 20 360 16.1 30.6 0.00 1.42 0.00 25 1010.3
20260504180050 19 360 14.5 30.6 0.00 1.42 0.00 26 1010.6
20260504174554 19 360 11.3 29.0 0.00 1.47 0.00 28 1011.1
20260504173050 18 209 11.3 32.2 0.00 1.47 0.00 28 1011.3
20260504171557 18 360 14.5 32.2 0.00 1.47 0.00 29 1011.4
20260504081552 13 360 0.0 0.0 0.00 1.47 0.00 29 1012.5
20260504044558 -17 0.0 0.0 0.00 1.47 1.47 1013.4
20260504043100 -17 0.0 0.0 0.00 1.47 1.47 1013.0
20260504041554 -17 0.0 0.0 0.00 1.47 1.47 1013.0
20260504040057 -17 0.0 0.0 0.00 1.47 1.47 1013.2
20260504034554 -17 0.0 0.0 0.00 1.47 1.47 1013.3
20260504033056 -17 0.0 0.0 0.00 1.47 1.47 1013.4
20260504031602 -17 0.0 0.0 0.00 1.47 1.47 1013.3
20260504030056 -17 0.0 0.0 0.00 1.47 1.47 1013.3
20260504024549 -17 0.0 0.0 0.00 1.47 1.47 1013.3
20260504023049 -17 0.0 0.0 0.00 1.47 1.47 1013.1
20260504021548 -17 0.0 0.0 0.00 1.47 1.47 1013.0
20260504020126 -17 0.0 0.0 0.00 1.47 1.47 1012.9
20260504014603 -17 0.0 0.0 0.00 1.47 1.47 1012.9
20260504013103 18 0.0 0.0 0.00 1.47 1.47 22 1012.7
20260504011549 19 0 0.0 0.0 0.00 1.47 1.47 22 1012.8
20260504010053 19 0 0.0 0.0 0.00 1.47 1.47 23 1013.0
20260504004619 19 0 0.0 0.0 0.00 1.47 1.47 23 1013.4
20260504003051 19 0 0.0 0.0 0.00 1.47 1.47 22 1013.4
20260504001618 20 0 0.0 0.0 0.00 1.47 1.47 21 1013.5
20260504000056 20 0 0.0 0.0 0.00 1.47 1.47 22 1013.6
20260503234558 20 0 0.0 0.0 0.00 1.47 1.47 22 1013.5
20260503233055 19 0 0.0 0.0 0.00 1.47 1.47 23 1013.8
20260503231553 20 0 0.0 0.0 0.00 1.47 1.47 20 1013.5
20260503230110 21 0 0.0 0.0 0.00 1.47 1.47 19 1013.4
20260503224556 21 0 0.0 0.0 0.00 1.47 1.47 19 1013.4
20260503223056 20 0 0.0 0.0 0.00 1.47 1.47 21 1013.7
20260503221604 20 0 0.0 0.0 0.00 1.47 1.47 19 1013.8
20260503220053 21 0 0.0 0.0 0.00 1.47 1.47 19 1014.1
20260503214600 20 0 0.0 0.0 0.00 1.47 1.47 21 1014.2
20260503213056 21 0 0.0 0.0 0.00 1.47 1.47 18 1014.1
20260503211553 21 0 0.0 0.0 0.53 1.47 1.47 16 1014.1